Location: ?????????
(44.2517°N, 135.2292°E)
Time: 07:10:11
(UTC+00:00)

H-2A R/B - Pass Details

Date: 19 May 2025
Orbit: 532 x 543 km, 98.2° (Epoch: 15 June)

Event Time Altitude Azimuth Distance (km) Brightness Sun altitude
Rises 18:24:16 0° 14° (NNE) 2,697 7.8 -10.1°
Reaches altitude 10° 18:26:23 10° 15° (NNE) 1,803 6.9 -9.8°
Maximum altitude 18:30:17 83° 101° (ESE) 548 3.3 -9.3°
Drops below altitude 10° 18:34:10 10° 192° (SSW) 1,796 5.5 -8.7°
Enters shadow 18:35:05 - 193° (SSW) 2,180 5.9 -8.6°
